AirNav   Air Wisconsin Up To $57,000 Bonus
 
 1151 users online  

50F Bourland Field Airport
Fort Worth, Texas, USA

GOING TO FORT WORTH?


FAA INFORMATION EFFECTIVE 26 MARCH 2020

Location

FAA Identifier: 50F
Lat/Long: 32-34-54.6000N 097-35-26.8000W
32-34.910000N 097-35.446667W
32.5818333,-97.5907778
(estimated)
Elevation: 873.2 ft. / 266.2 m (surveyed)
Variation: 06E (2000)
From city: 17 miles SW of FORT WORTH, TX
Time zone: UTC -5 (UTC -6 during Standard Time)
Zip code: 76126

Airport Operations

Airport use: Open to the public
Activation date: 09/1981
Control tower: no
ARTCC: FORT WORTH CENTER
FSS: FORT WORTH FLIGHT SERVICE STATION
NOTAMs facility: FTW (NOTAM-D service available)
Attendance: MON-SAT DAYLIGHT HOURS
FOR SVCS AFT HRS CALL 817-396-4554.
Wind indicator: lighted
Segmented circle: yes
Lights: ACTVT MIRL RY 17/35, VASI RYS 17 & 35 - CTAF.
Beacon: white-green (lighted land airport)
Operates sunset to sunrise.

Airport Communications

CTAF/UNICOM: 123.0
REGIONAL APPROACH: 135.975
REGIONAL DEPARTURE: 135.975
DODJE STAR: 125.2 125.9
LIKES STAR: 125.8 ;SOUTH 135.975 ;NORTH
MOTZA STAR: 118.1 ;SOUTH 125.8 ;NORTH
REEKO STAR: 125.2
SANGR STAR: 124.3
SASIE STAR: 124.3
SLUGG STAR: 125.8 ;SOUTH 135.975 ;NORTH
WESAT STAR: 118.1 ;SOUTH 125.8 ;NORTH
WX AWOS-3 at GDJ (14 nm SW): 118.925 (817-573-7514)
WX AWOS-3 at FWS (14 nm E): 120.025 (817-426-4172)
WX AWOS-3 at CPT (16 nm SE): 119.525 (817-641-4135)
WX ASOS at FTW (18 nm NE): PHONE 817-740-3346

Nearby radio navigation aids

VOR radial/distance  VOR name  Freq  Var
MQPr104/22.3MILLSAP VORTAC117.7009E
FUZr222/27.8RANGER VORTAC115.7006E
JENr024/29.2GLEN ROSE VORTAC115.0006E
TTTr232/32.7MAVERICK VOR/DME113.1006E
CVEr236/39.3COWBOY VOR/DME116.2006E

Airport Services

Fuel available: 100LL JET-A
FUEL AVBL SELF SERVE AND FULL SERVICE
Parking: hangars and tiedowns

Runway Information

Runway 17/35

Dimensions: 4049 x 60 ft. / 1234 x 18 m
Surface: asphalt, in good condition
Runway edge lights: medium intensity
RY 17/35 NSTD MIRL; LENSES ON THLD & DSPLCD THLD CLEAR LENSES WITH SOLID COLOR BULBS.
RUNWAY 17  RUNWAY 35
Latitude: 32-35.240523N32-34.580380N
Longitude: 097-35.505517W097-35.388090W
Elevation: 873.1 ft.836.7 ft.
Traffic pattern: leftleft
Runway heading: 165 magnetic, 171 true345 magnetic, 351 true
Displaced threshold: 392 ft.215 ft.
Markings: nonprecision, in good conditionnonprecision, in good condition
Visual slope indicator: 2-box VASI on left (3.00 degrees glide path)2-box VASI on left (3.00 degrees glide path)
Touchdown point: yes, no lightsyes, no lights
Obstructions: 15 ft. road, 201 ft. from runway, 33 ft. right of centerline
15 FT RD 0 FT DSTC 112 FT R.
40 ft. trees, 201 ft. from runway, 60 ft. right of centerline
40 FT TREES 0-120 FT DSTC 60 FT R & L.

Airport Ownership and Management from official FAA records

Ownership: Privately-owned
Owner: MATT RIX
17611 HWY 377 SOUTH
CRESSON, TX 76035
Phone 817-307-0718
ALSO MATTHEW MOORE - 682-521-7056.
Manager: KEVIN LOGUE
11661 HWY 377 SOUTH
CRESSON, TX 76035
Phone 817-396-4554
817-832-5689 MGR CELL.

Airport Operational Statistics

Aircraft based on the field: 118
Single engine airplanes: 100
Multi engine airplanes: 15
Jet airplanes: 2
Helicopters: 1
    
Aircraft operations: avg 128/day *
75% local general aviation
25% transient general aviation
* for 12-month period ending 30 December 2018

Additional Remarks

FOR CD CTC REGIONAL APCH AT 972-615-2799.
BRUSH & TREES OBSCURE VIEW OF RWY & APPROACH AT TXY HOLD POSITIONS.
OPR STATUS OF RWY LIGHTS UNKN. NMRS LIGHTS KNOCKED OVER, BROKEN, BARE WIRES, EXPOSED WIRES.

Instrument Procedures

NOTE: All procedures below are presented as PDF files. If you need a reader for these files, you should download the free Adobe Reader.

NOT FOR NAVIGATION. Please procure official charts for flight.
FAA instrument procedures published for use from 26 March 2020 at 0901Z to 23 April 2020 at 0900Z.

 
STARs - Standard Terminal Arrivals
LIKES THREE (RNAV)   download (195KB)
MOTZA NINE   2 pages: [1] [2] (483KB)
REEKO THREE (RNAV)   download (198KB)
SASIE SIX **CHANGED**   2 pages: [1] [2] (473KB)
TRUUK TWO (RNAV)   download (197KB)
WESAT TWO (RNAV)   download (192KB)
 
IAPs - Instrument Approach Procedures
RNAV (GPS) RWY 17   download (154KB)
RNAV (GPS) RWY 35   download (169KB)
 
Departure Procedures
GARLAND SEVEN **CHANGED**   2 pages: [1] [2] (324KB)
HUBBARD ONE **CHANGED**   2 pages: [1] [2] (318KB)
KINGDOM SIX **CHANGED**   2 pages: [1] [2] (342KB)
KUSSO SIX (RNAV) **CHANGED**   2 pages: [1] [2] (280KB)
SWABR SIX (RNAV) **CHANGED**   2 pages: [1] [2] (281KB)
NOTE: Special Take-Off Minimums/Departure Procedures apply   download

Other nearby airports with instrument procedures:

KWEA - Parker County Airport (11 nm NW)
KNFW - Fort Worth Naval Air Station JRB (Carswell Field) Airport (14 nm NE)
KGDJ - Granbury Regional Airport (14 nm SW)
KFWS - Fort Worth Spinks Airport (14 nm E)
KCPT - Cleburne Regional Airport (16 nm SE)
KFTW - Fort Worth Meacham International Airport (18 nm NE)
 
Loc | Ops | Rwys | IFR | FBO | Links
Com | Nav | Svcs | Stats | Notes
Area around 50F (Bourland Field Airport)
 
Road maps at: MapQuest Bing Google
 
Aerial photo
WARNING: Photo may not be current or correct
Aerial photo of 50F (Bourland Field Airport)
Photo by Paul Bristow
Photo taken 01-Jun-2008

Do you have a better or more recent aerial photo of Bourland Field Airport that you would like to share? If so, please send us your photo.

 
Sectional chart

 
Airport distance calculator
Flying to Bourland Field Airport? Find the distance to fly.

From to 50F

Sunrise and sunset
Times for 09-Apr-2020
 Local
(UTC-5)
 Zulu
(UTC)
Morning civil twilight06:4311:43
Sunrise07:0812:08
Sunset19:5500:55
Evening civil twilight20:2101:21

Current date and time
Zulu (UTC)  09-Apr-2020 21:26:19
Local (UTC-5)  09-Apr-2020 16:26:19
 
METAR
KNFW 
13nm NE 
092052Z 29005KT 10SM -RA OVC110 23/16 A2994 RMK AO2 RAB44 SLP123 P0000 60000 T02280156 53009 VISNO N $
KGDJ 
14nm SW 
AWOS-3 118.925 817-573-7514
092115Z AUTO 00000KT 10SM RA OVC100 20/17 A2995 RMK AO2 LTG DSNT E AND SE P0001 T02000170
KFWS 
15nm E 
092053Z 00000KT 5SM -RA OVC033 21/17 A2996
KCPT 
16nm SE 
092115Z AUTO 34007KT 5SM BR CLR 20/18 A2996 RMK A01 LTG DSNT E-S
KFTW 
19nm NE 
092053Z 30004KT 10SM -RA FEW046 BKN110 22/16 A2993 RMK AO2 RAB50 SLP128 P0000 60000 T02170156 53008
KGKY 
25nm E 
092053Z 00000KT 7SM -RA FEW036 OVC095 22/17 A2994 RMK AO2 RAB24 SLP130 P0001 60001 T02170172 53011
TAF
KNFW 
13nm NE 
0915/1015 VRB06KT 9999 BKN180 OVC250 QNH2986INS BECMG 0917/0919 04012KT 9999 SCT025 BKN100 OVC180 QNH2982INS BECMG 0923/1001 01009KT 9999 VCSH SCT015 BKN035 OVC080 QNH2985INS BECMG 1005/1006 02015KT 9999 NSW FEW025 SCT060 BKN150 QNH2990INS T24/0921Z T13/1011Z FN20046
KFTW 
19nm NE 
091730Z 0918/1018 06011KT P6SM BKN200 FM092300 03009KT P6SM SCT050 OVC120 FM101700 07009KT P6SM SKC
NOTAMs
Click for the latest NOTAMs
NOTAMs are issued by the DoD/FAA and will open in a separate window not controlled by AirNav.

 

 
 

FBO, Fuel Providers, and Aircraft Ground Support

  
 Business Name 
 
 Contact 
 
 Services / Description 
 
Fuel Prices
 
Comments
  
Bourland Field 817-396-4554
no information available

If you are affiliated with Bourland Field and would like to show here your services, contact info, web link, logo, and more, click here
100LL Jet A
FS --- $3.63 
SS $4.07 $3.63 
 Updated 02-Apr-2020
 
   write
FS=Full service
SS=Self service
Update Fuel Prices
 

Would you like to see your business listed on this page?

 If your business provides an interesting product or service to pilots, flight crews, aircraft, or users of the Bourland Field Airport, you should consider listing it here.  To start the listing process, click on the button below
 
Add a business
 

Other Pages about Bourland Field Airport

www.bourlandestates.com/bourlandfield.htm
 
Update a link
 
Copyright © AirNav, LLC. All rights reserved. Privacy Policy  Contact